Location: Malvern Link
(52.1333°N, 2.3000°W)
Time: 03:56:13
(UTC+00:00)

SJ 16-02 - Pass Details

Date: 18 September 2020
Orbit: 606 x 616 km, 75.0° (Epoch: 22 October)

Event Time Altitude Azimuth Distance (km) Brightness Sun altitude
Rises 19:37:00 0° 229° (SW) 2,858 5.2 -13.0°
Reaches altitude 10° 19:39:25 10° 239° (WSW) 1,958 4.5 -13.3°
Maximum altitude 19:43:22 33° 304° (NW) 1,042 3.3 -13.9°
Drops below altitude 10° 19:47:21 10° 9° (N) 1,970 4.1 -14.5°
Sets 19:49:47 0° 19° (NNE) 2,878 4.8 -14.8°
